DW7214 Weather Reports


Display with metric or nautical units.
time (UTC)temp
F
wind
direction
speed
MPH
gust
MPH
rain 1hr
in
rain 24hr
in
rain mn
in
humidity
%
barometer
mb
20210921151820 60 24 2.0 0.0 0.00 0.00 0.00 57 1017.9
20210921151331 60 360 2.0 0.0 0.00 0.00 0.00 56 1017.9
20210921150847 60 350 2.0 0.0 0.00 0.00 0.00 57 1017.9
20210921150328 59 5 1.0 0.0 0.00 0.00 0.00 57 1018.0
20210921145815 59 42 1.0 0.0 0.00 0.00 0.00 57 1018.0
20210921145326 59 49 1.0 0.0 0.00 0.00 0.00 58 1018.0
20210921144832 59 47 3.0 0.0 0.00 0.00 0.00 58 1017.9
20210921144323 59 37 4.0 0.0 0.00 0.00 0.00 57 1017.9
20210921143827 59 58 4.0 0.0 0.00 0.00 0.00 57 1017.9
20210921143321 59 25 4.0 0.0 0.00 0.00 0.00 57 1017.8
20210921142832 59 38 3.0 0.0 0.00 0.00 0.00 58 1017.8
20210921142323 59 36 4.0 0.0 0.00 0.00 0.00 58 1017.8
20210921141830 58 59 3.0 0.0 0.00 0.00 0.00 58 1017.8
20210921141321 58 28 3.0 0.0 0.00 0.00 0.00 58 1017.8
20210921140838 58 40 3.0 0.0 0.00 0.00 0.00 58 1017.8
20210921140334 58 26 3.0 0.0 0.00 0.00 0.00 58 1017.9
20210921135819 59 11 4.0 0.0 0.00 0.00 0.00 58 1017.9
20210921135331 59 38 3.0 0.0 0.00 0.00 0.00 58 1017.9
20210921134817 59 23 2.0 0.0 0.00 0.00 0.00 57 1018.0
20210921134327 59 39 1.0 0.0 0.00 0.00 0.00 58 1018.0
20210921133837 59 24 2.0 0.0 0.00 0.00 0.00 57 1018.0
20210921133330 59 24 3.0 0.0 0.00 0.00 0.00 57 1018.0
20210921132817 59 16 2.0 0.0 0.00 0.00 0.00 57 1018.0
20210921132329 59 40 2.0 0.0 0.00 0.00 0.00 57 1018.0
20210921131818 59 32 2.0 0.0 0.00 0.00 0.00 57 1018.0
20210921131329 59 355 3.0 0.0 0.00 0.00 0.00 57 1018.0
20210921130845 59 46 5.0 0.0 0.00 0.00 0.00 57 1018.0
20210921130327 59 350 5.0 0.0 0.00 0.00 0.00 57 1018.1
20210921125814 59 5 5.0 0.0 0.00 0.00 0.00 57 1018.1
20210921125326 59 37 5.0 0.0 0.00 0.00 0.00 57 1018.1
20210921124816 59 28 4.0 0.0 0.00 0.00 0.00 57 1018.2
20210921124327 59 49 3.0 0.0 0.00 0.00 0.00 57 1018.2
20210921123833 59 32 3.0 0.0 0.00 0.00 0.00 57 1018.2
20210921123327 59 40 3.0 0.0 0.00 0.00 0.00 57 1018.2
20210921122815 59 27 2.0 0.0 0.00 0.00 0.00 57 1018.2
20210921122326 59 34 2.0 0.0 0.00 0.00 0.00 57 1018.2
20210921121831 59 20 2.0 0.0 0.00 0.00 0.00 57 1018.2
20210921121322 59 25 2.0 0.0 0.00 0.00 0.00 57 1018.2
20210921120838 59 14 3.0 0.0 0.00 0.00 0.00 57 1018.2
20210921120320 59 42 4.0 0.0 0.00 0.00 0.00 57 1018.4
20210921115831 59 38 5.0 0.0 0.00 0.00 0.00 57 1018.4
20210921115323 59 54 5.0 0.0 0.00 0.00 0.00 57 1018.4
20210921114828 59 35 5.0 0.0 0.00 0.00 0.00 57 1018.5
20210921114319 59 39 5.0 0.0 0.00 0.00 0.00 57 1018.5
20210921113825 59 30 5.0 0.0 0.00 0.00 0.00 57 1018.5
20210921113337 59 350 4.0 0.0 0.00 0.00 0.00 57 1018.7
20210921112824 59 17 3.0 0.0 0.00 0.00 0.00 56 1018.7
20210921112336 59 5 2.0 0.0 0.00 0.00 0.00 56 1018.7
20210921111822 59 13 1.0 0.0 0.00 0.00 0.00 56 1018.7
20210921111332 59 38 3.0 0.0 0.00 0.00 0.00 57 1018.7
20210921110831 59 26 3.0 0.0 0.00 0.00 0.00 57 1018.7
20210921110332 59 9 3.0 0.0 0.00 0.00 0.00 57 1019.1
20210921105819 59 36 3.0 0.0 0.00 0.00 0.00 57 1019.1
20210921105331 59 38 3.0 0.0 0.00 0.00 0.00 56 1019.1
20210921104818 59 51 4.0 0.0 0.00 0.00 0.00 57 1019.2
20210921104329 59 17 4.0 0.0 0.00 0.00 0.00 57 1019.2
20210921103833 59 30 3.0 0.0 0.00 0.00 0.00 57 1019.2
20210921103325 59 44 2.0 0.0 0.00 0.00 0.00 57 1019.2
20210921102832 59 5 3.0 0.0 0.00 0.00 0.00 57 1019.2
20210921102323 59 39 2.0 0.0 0.00 0.00 0.00 57 1019.2
20210921101834 59 38 2.0 0.0 0.00 0.00 0.00 57 1019.4
20210921101324 59 42 3.0 0.0 0.00 0.00 0.00 58 1019.4
20210921100841 59 336 3.0 0.0 0.00 0.00 0.00 58 1019.4
20210921100322 59 21 3.0 0.0 0.00 0.00 0.00 58 1019.7
20210921095829 60 5 3.0 0.0 0.00 0.00 0.00 58 1019.7
20210921095340 60 348 4.0 0.0 0.00 0.00 0.00 58 1019.7
20210921094823 60 16 4.0 0.0 0.00 0.00 0.00 57 1019.7
20210921094335 60 16 4.0 0.0 0.00 0.00 0.00 58 1019.7
20210921093820 60 11 4.0 0.0 0.00 0.00 0.00 58 1019.7
20210921093332 60 42 4.0 0.0 0.00 0.00 0.00 57 1019.8
20210921092824 60 22 3.0 0.0 0.00 0.00 0.00 57 1019.8
20210921092335 60 66 2.0 0.0 0.00 0.00 0.00 58 1019.8
20210921091822 60 24 2.0 0.0 0.00 0.00 0.00 58 1020.0
20210921091332 60 335 2.0 0.0 0.00 0.00 0.00 58 1020.0
20210921090846 60 9 3.0 0.0 0.00 0.00 0.00 58 1020.0
20210921090329 60 32 3.0 0.0 0.00 0.00 0.00 58 1020.2
20210921085816 60 28 3.0 0.0 0.00 0.00 0.00 57 1020.2
20210921085328 60 34 3.0 0.0 0.00 0.00 0.00 57 1020.2
20210921084833 60 355 3.0 0.0 0.00 0.00 0.00 57 1020.3
20210921084324 60 17 2.0 0.0 0.00 0.00 0.00 58 1020.3
20210921083832 60 34 3.0 0.0 0.00 0.00 0.00 58 1020.3
20210921083325 60 55 4.0 0.0 0.00 0.00 0.00 58 1020.3
20210921082832 60 316 4.0 0.0 0.00 0.00 0.00 58 1020.3
20210921082323 60 5 3.0 0.0 0.00 0.00 0.00 58 1020.3
20210921081830 60 45 2.0 0.0 0.00 0.00 0.00 58 1020.3
20210921081321 60 49 3.0 0.0 0.00 0.00 0.00 58 1020.3
20210921080839 60 22 4.0 0.0 0.00 0.00 0.00 58 1020.3
20210921080323 60 355 6.0 0.0 0.00 0.00 0.00 58 1020.3
20210921075834 60 19 5.0 0.0 0.00 0.00 0.00 58 1020.3
20210921075325 60 360 4.0 0.0 0.00 0.00 0.00 57 1020.3
20210921074820 60 13 4.0 0.0 0.00 0.00 0.00 58 1020.4
20210921074331 60 5 4.0 0.0 0.00 0.00 0.00 58 1020.4
20210921073820 60 61 4.0 0.0 0.00 0.00 0.00 58 1020.4
20210921073332 60 28 3.0 0.0 0.00 0.00 0.00 58 1020.7
20210921072823 60 42 3.0 0.0 0.00 0.00 0.00 58 1020.7
20210921072334 60 5 4.0 0.0 0.00 0.00 0.00 58 1020.7
20210921071825 60 22 3.0 0.0 0.00 0.00 0.00 58 1021.0
20210921071316 60 74 2.0 0.0 0.00 0.00 0.00 58 1021.0
20210921070835 60 38 2.0 0.0 0.00 0.00 0.00 58 1021.0
20210921070321 60 5 2.0 0.0 0.00 0.00 0.00 58 1020.9
20210921065832 60 59 3.0 0.0 0.00 0.00 0.00 58 1020.9
20210921065323 60 41 3.0 0.0 0.00 0.00 0.00 58 1020.9
20210921064835 60 46 4.0 0.0 0.00 0.00 0.00 58 1020.9
20210921064325 60 349 3.0 0.0 0.00 0.00 0.00 58 1020.9
20210921063835 60 45 3.0 0.0 0.00 0.00 0.00 58 1020.9
20210921063329 60 56 3.0 0.0 0.00 0.00 0.00 58 1020.8
20210921062820 60 38 3.0 0.0 0.00 0.00 0.00 58 1020.8
20210921062331 60 59 2.0 0.0 0.00 0.00 0.00 58 1020.8
20210921061826 60 65 1.0 0.0 0.00 0.00 0.00 58 1020.9
20210921061317 60 61 2.0 0.0 0.00 0.00 0.00 58 1020.9
20210921060837 60 49 1.0 0.0 0.00 0.00 0.00 58 1020.9
20210921060318 61 80 1.0 0.0 0.00 0.00 0.00 58 1021.1
20210921055828 61 32 1.0 0.0 0.00 0.00 0.00 58 1021.1
20210921055320 61 59 3.0 0.0 0.00 0.00 0.00 58 1021.1
20210921054830 61 61 2.0 0.0 0.00 0.00 0.00 58 1021.3
20210921054321 61 79 2.0 0.0 0.00 0.00 0.00 58 1021.3
20210921053828 61 46 3.0 0.0 0.00 0.00 0.00 58 1021.3
20210921053321 61 57 2.0 0.0 0.00 0.00 0.00 58 1021.4
20210921052816 61 28 2.0 0.0 0.00 0.00 0.00 58 1021.4
20210921052327 61 46 2.0 0.0 0.00 0.00 0.00 58 1021.4
20210921051819 61 66 3.0 0.0 0.00 0.00 0.00 58 1021.6
20210921051331 61 40 3.0 0.0 0.00 0.00 0.00 58 1021.6
20210921050830 61 58 2.0 0.0 0.00 0.00 0.00 58 1021.6
20210921050332 61 59 1.0 0.0 0.00 0.00 0.00 59 1021.9
20210921045823 61 53 1.0 0.0 0.00 0.00 0.00 59 1021.9
20210921045334 61 40 1.0 0.0 0.00 0.00 0.00 59 1021.9
20210921044825 62 36 1.0 0.0 0.00 0.00 0.00 59 1021.9
20210921044320 62 61 1.0 0.0 0.00 0.00 0.00 59 1021.9
20210921043830 62 61 1.0 0.0 0.00 0.00 0.00 59 1021.9
20210921043323 62 57 1.0 0.0 0.00 0.00 0.00 59 1021.9
20210921042834 62 53 1.0 0.0 0.00 0.00 0.00 59 1021.9
20210921042325 63 69 1.0 0.0 0.00 0.00 0.00 59 1021.9
20210921041816 63 69 0.0 0.0 0.00 0.00 0.00 59 1022.0
20210921041327 63 53 0.0 0.0 0.00 0.00 0.00 58 1022.0
20210921040847 63 53 0.0 0.0 0.00 0.00 0.00 58 1022.0
20210921040327 63 53 0.0 0.0 0.00 0.00 0.00 58 1021.9
20210921035822 63 53 1.0 0.0 0.00 0.00 0.00 58 1021.9
20210921035334 64 52 3.0 0.0 0.00 0.00 0.00 57 1021.9
20210921034826 64 33 3.0 0.0 0.00 0.00 0.00 57 1021.9
20210921034317 63 12 2.0 0.0 0.00 0.00 0.00 58 1021.9
20210921033823 63 31 1.0 0.0 0.00 0.00 0.00 58 1021.9
20210921033317 63 45 0.0 0.0 0.00 0.00 0.00 58 1021.8
20210921032827 63 45 0.0 0.0 0.00 0.00 0.00 58 1021.8
20210921032318 64 45 1.0 0.0 0.00 0.00 0.00 57 1021.9
20210921031826 64 44 0.0 0.0 0.00 0.00 0.00 57 1021.9
20210921031320 64 44 0.0 0.0 0.00 0.00 0.00 57 1021.9
20210921030837 64 45 0.0 0.0 0.00 0.00 0.00 57 1021.9
20210921030317 64 45 1.0 0.0 0.00 0.00 0.00 57 1021.9
20210921025827 64 40 0.0 0.0 0.00 0.00 0.00 57 1021.9
20210921025316 64 40 0.0 0.0 0.00 0.00 0.00 57 1021.9
20210921024823 64 40 1.0 0.0 0.00 0.00 0.00 57 1021.9
20210921024331 64 40 1.0 0.0 0.00 0.00 0.00 57 1021.9
20210921023819 64 40 0.0 0.0 0.00 0.00 0.00 57 1021.9
20210921023332 63 40 0.0 0.0 0.00 0.00 0.00 58 1021.9
20210921022820 64 40 0.0 0.0 0.00 0.00 0.00 58 1021.9
20210921022316 64 40 0.0 0.0 0.00 0.00 0.00 58 1021.9
20210921021826 64 40 0.0 0.0 0.00 0.00 0.00 57 1021.9
20210921021317 64 40 0.0 0.0 0.00 0.00 0.00 58 1021.9
20210921020836 64 40 0.0 0.0 0.00 0.00 0.00 58 1021.9
20210921020318 64 40 0.0 0.0 0.00 0.00 0.00 58 1021.7
20210921015829 65 40 0.0 0.0 0.00 0.00 0.00 57 1021.7
20210921015320 65 40 1.0 0.0 0.00 0.00 0.00 57 1021.7
20210921014831 65 40 1.0 0.0 0.00 0.00 0.00 57 1021.8
20210921014322 65 40 1.0 0.0 0.00 0.00 0.00 57 1021.8
20210921013829 65 40 0.0 0.0 0.00 0.00 0.00 56 1021.8
20210921013324 66 38 0.0 0.0 0.00 0.00 0.00 56 1021.8
20210921012815 66 38 1.0 0.0 0.00 0.00 0.00 56 1021.8
20210921012326 66 38 2.0 0.0 0.00 0.00 0.00 55 1021.8
20210921011817 66 51 2.0 0.0 0.00 0.00 0.00 55 1021.8
20210921011328 66 36 1.0 0.0 0.00 0.00 0.00 54 1021.8
20210921010848 67 57 1.0 0.0 0.00 0.00 0.00 54 1021.8
20210921010329 67 42 1.0 0.0 0.00 0.00 0.00 54 1022.1
20210921005820 67 32 2.0 0.0 0.00 0.00 0.00 54 1022.1
20210921005331 67 33 3.0 0.0 0.00 0.00 0.00 54 1022.1
20210921004826 67 360 5.0 0.0 0.00 0.00 0.00 54 1022.1
20210921004317 67 53 5.0 0.0 0.00 0.00 0.00 53 1022.1
20210921003826 67 18 4.0 0.0 0.00 0.00 0.00 54 1022.1
20210921003319 67 360 6.0 0.0 0.00 0.00 0.00 53 1022.3
20210921002830 67 28 6.0 0.0 0.00 0.00 0.00 53 1022.3
20210921002321 68 34 4.0 0.0 0.00 0.00 0.00 53 1022.3
20210921001832 68 55 2.0 0.0 0.00 0.00 0.00 52 1022.4
20210921001323 68 52 2.0 0.0 0.00 0.00 0.00 53 1022.4
20210921000844 68 21 2.0 0.0 0.00 0.00 0.00 53 1022.4
20210921000325 68 33 1.0 0.0 0.00 0.00 0.00 52 1022.5
20210920235821 68 335 2.0 0.0 0.00 0.00 0.00 53 1022.5
20210920235331 68 329 4.0 0.0 0.00 0.00 0.00 53 1022.5
20210920234822 68 33 4.0 0.0 0.00 0.00 0.00 55 1022.6
20210920234330 68 50 2.0 0.0 0.00 0.00 0.00 54 1022.6
20210920233819 68 20 3.0 0.0 0.00 0.00 0.00 54 1022.6
20210920233333 67 46 5.0 0.0 0.00 0.00 0.00 55 1022.9
20210920232824 67 45 5.0 0.0 0.00 0.00 0.00 54 1022.9
20210920232335 68 65 4.0 0.0 0.00 0.00 0.00 54 1022.9
20210920231823 68 355 2.0 0.0 0.00 0.00 0.00 54 1022.9
20210920231318 68 68 2.0 0.0 0.00 0.00 0.00 54 1022.9
20210920230836 68 55 2.0 0.0 0.00 0.00 0.00 53 1022.9
20210920230320 68 22 2.0 0.0 0.00 0.00 0.00 53 1023.1
20210920225832 68 325 2.0 0.0 0.00 0.00 0.00 53 1023.1
20210920225323 67 340 3.0 0.0 0.00 0.00 0.00 54 1023.1
20210920224834 67 322 4.0 0.0 0.00 0.00 0.00 53 1023.2
20210920224325 67 331 3.0 0.0 0.00 0.00 0.00 53 1023.2
20210920223834 67 21 3.0 0.0 0.00 0.00 0.00 53 1023.2
20210920223327 67 9 4.0 0.0 0.00 0.00 0.00 53 1023.3
20210920222822 67 16 3.0 0.0 0.00 0.00 0.00 53 1023.3
20210920222333 67 47 4.0 0.0 0.00 0.00 0.00 53 1023.3
20210920221824 67 18 5.0 0.0 0.00 0.00 0.00 53 1023.4
20210920221315 66 48 5.0 0.0 0.00 0.00 0.00 53 1023.4
20210920220833 67 40 4.0 0.0 0.00 0.00 0.00 53 1023.4
20210920220315 67 351 3.0 0.0 0.00 0.00 0.00 52 1023.5
20210920215826 67 5 3.0 0.0 0.00 0.00 0.00 51 1023.5
20210920215317 67 36 3.0 0.0 0.00 0.00 0.00 52 1023.5
20210920214828 67 10 3.0 0.0 0.00 0.00 0.00 52 1023.5
20210920214323 66 336 3.0 0.0 0.00 0.00 0.00 52 1023.5
20210920213831 67 31 2.0 0.0 0.00 0.00 0.00 52 1023.5
20210920213325 67 360 1.0 0.0 0.00 0.00 0.00 52 1023.6
20210920212816 66 9 2.0 0.0 0.00 0.00 0.00 51 1023.6
20210920212327 66 9 2.0 0.0 0.00 0.00 0.00 51 1023.6
20210920211818 66 355 2.0 0.0 0.00 0.00 0.00 51 1024.0
20210920211329 66 30 2.0 0.0 0.00 0.00 0.00 51 1024.0
20210920210848 66 171 2.0 0.0 0.00 0.00 0.00 50 1024.0
20210920210331 65 69 3.0 0.0 0.00 0.00 0.00 50 1024.1
20210920205822 65 22 5.0 0.0 0.00 0.00 0.00 50 1024.1
20210920205317 65 9 3.0 0.0 0.00 0.00 0.00 49 1024.1
20210920204828 65 30 2.0 0.0 0.00 0.00 0.00 49 1024.2
20210920204319 65 11 3.0 0.0 0.00 0.00 0.00 48 1024.2
20210920203830 64 35 3.0 0.0 0.00 0.00 0.00 47 1024.2
20210920203323 64 78 4.0 0.0 0.00 0.00 0.00 45 1024.4
20210920202834 64 33 5.0 0.0 0.00 0.00 0.00 44 1024.4
20210920202325 64 17 6.0 0.0 0.00 0.00 0.00 44 1024.4
20210920201816 64 351 4.0 0.0 0.00 0.00 0.00 42 1024.5
20210920201327 64 348 3.0 0.0 0.00 0.00 0.00 39 1024.5
20210920200830 64 56 3.0 0.0 0.00 0.00 0.00 35 1024.5
20210920200331 64 9 2.0 0.0 0.00 0.00 0.00 29 1024.6
20210920195822 63 350 2.0 0.0 0.00 0.00 0.00 25 1024.6
20210920195333 63 63 3.0 0.0 0.00 0.00 0.00 13 1024.6
20210920194820 63 87 2.0 0.0 0.00 0.00 0.00 16 1024.6
20210920194331 63 90 1.0 0.0 0.00 0.00 0.00 3 1024.6
20210920193820 63 69 2.0 0.0 0.00 0.00 0.00 100 1024.6
20210920193315 62 69 1.0 0.0 0.00 0.00 0.00 100 1024.7
20210920192826 61 65 2.0 0.0 0.00 0.00 0.00 100 1024.7
20210920192321 59 70 2.0 0.0 0.00 0.00 0.00 100 1024.7
20210920191832 58 89 2.0 0.0 0.00 0.00 0.00 100 1024.6
20210920191323 57 67 2.0 0.0 0.00 0.00 0.00 100 1024.6
20210920190841 56 68 3.0 0.0 0.00 0.00 0.00 100 1024.6
20210920190324 56 68 3.0 0.0 0.00 0.00 0.00 100 1024.7
20210920185815 56 94 2.0 0.0 0.00 0.00 0.00 100 1024.7
20210920185326 56 60 2.0 0.0 0.00 0.00 0.00 100 1024.7
20210920184817 55 71 1.0 0.0 0.00 0.00 0.00 100 1024.7
20210920184327 55 73 2.0 0.0 0.00 0.00 0.00 100 1024.7
20210920183821 55 88 2.0 0.0 0.00 0.00 0.00 100 1024.7
20210920183315 54 111 2.0 0.0 0.00 0.00 0.00 100 1025.0
20210920182826 54 44 1.0 0.0 0.00 0.00 0.00 100 1025.0
20210920182317 53 12 2.0 0.0 0.00 0.00 0.00 100 1025.0
20210920181828 53 325 3.0 0.0 0.00 0.00 0.00 100 1025.1
20210920181319 53 5 1.0 0.0 0.00 0.00 0.00 100 1025.1
20210920180837 53 61 1.0 0.0 0.00 0.00 0.00 100 1025.1
20210920180320 53 61 2.0 0.0 0.00 0.00 0.00 100 1025.1
20210920175831 52 61 3.0 0.0 0.00 0.00 0.00 100 1025.1
20210920175322 52 61 3.0 0.0 0.00 0.00 0.00 100 1025.1
20210920174817 52 61 3.0 0.0 0.00 0.00 0.00 100 1024.9
20210920174328 52 61 3.0 0.0 0.00 0.00 0.00 100 1024.9
20210920173837 52 74 1.0 0.0 0.00 0.00 0.00 100 1024.9
20210920173328 52 92 0.0 0.0 0.00 0.00 0.00 100 1024.9
20210920172819 52 92 0.0 0.0 0.00 0.00 0.00 100 1024.9
20210920172330 52 92 1.0 0.0 0.00 0.00 0.00 100 1024.9
20210920171821 51 92 1.0 0.0 0.00 0.00 0.00 100 1025.1
20210920171332 51 97 0.0 0.0 0.00 0.00 0.00 100 1025.1
20210920170832 51 97 0.0 0.0 0.00 0.00 0.00 100 1025.1
20210920170320 51 97 1.0 0.0 0.00 0.00 0.00 100 1025.1
20210920165831 51 97 1.0 0.0 0.00 0.00 0.00 100 1025.1
20210920165322 51 215 1.0 0.0 0.00 0.00 0.00 100 1025.1
20210920164834 51 215 1.0 0.0 0.00 0.00 0.00 100 1025.1
20210920164324 51 215 1.0 0.0 0.00 0.00 0.00 100 1025.1
20210920163832 51 215 1.0 0.0 0.00 0.00 0.00 100 1025.1
20210920163325 51 215 0.0 0.0 0.00 0.00 0.00 100 1025.0
20210920162816 50 215 0.0 0.0 0.00 0.00 0.00 100 1024.9
20210920162327 50 215 0.0 0.0 0.00 0.00 0.00 100 1024.9
20210920161822 50 215 0.0 0.0 0.00 0.00 0.00 100 1025.1
20210920161333 50 215 0.0 0.0 0.00 0.00 0.00 100 1025.1
20210920160831 50 215 0.0 0.0 0.00 0.00 0.00 100 1025.1
20210920160333 50 215 0.0 0.0 0.00 0.00 0.00 100 1025.1
20210920155824 50 215 0.0 0.0 0.00 0.00 0.00 100 1025.1
20210920155315 49 215 0.0 0.0 0.00 0.00 0.00 100 1025.1
20210920154826 49 215 0.0 0.0 0.00 0.00 0.00 100 1025.0
20210920154317 49 215 0.0 0.0 0.00 0.00 0.00 100 1025.0
20210920153827 49 215 0.0 0.0 0.00 0.00 0.00 100 1025.0
20210920153318 49 215 0.0 0.0 0.00 0.00 0.00 100 1024.7
20210920152833 48 215 0.0 0.0 0.00 0.00 0.00 100 1024.6
20210920152324 48 215 0.0 0.0 0.00 0.00 0.00 100 1024.6